OBJECT_NAME,OBJECT_ID,EPOCH,MEAN_MOTION,ECCENTRICITY,INCLINATION,RA_OF_ASC_NODE,ARG_OF_PERICENTER,MEAN_ANOMALY,EPHEMERIS_TYPE,CLASSIFICATION_TYPE,NORAD_CAT_ID,ELEMENT_SET_NO,REV_AT_EPOCH,BSTAR,MEAN_MOTION_DOT,MEAN_MOTION_DDOT METOP-B,2012-049A,2026-09-12T06:18:17.277408,14.21458567,.0003457,98.6421,304.9895,95.3514,264.8058,0,U,38771,999,72563,.47748208E-4,.61E-6,0 SARAL,2013-009A,2026-09-12T06:10:23.315520,14.32906767,.00026865,98.5565,80.7360,53.3725,306.7706,0,U,39086,999,70807,.28190912E-4,.33E-6,0 METOP-C,2018-087A,2026-09-12T04:59:07.301760,14.21509908,.00005468,98.6958,313.2167,53.1367,306.9861,0,U,43689,999,40719,.48077363E-4,.62E-6,0 OTB-3-GAZELLE,2022-127A,2026-09-12T05:44:43.290816,14.42700544,.00119416,98.4031,245.6534,288.3738,71.6153,0,U,54023,999,20691,.34279223E-4,.71E-6,0 EOS-6 (OCEANSAT-3),2022-158A,2026-09-12T06:58:25.057056,14.46977376,.00023351,98.3552,352.3312,92.9973,267.1487,0,U,54361,999,20043,.6150458E-4,.18E-5,0 KINEIS-1B,2024-114A,2026-09-12T07:03:45.292608,14.80742598,.00030403,97.9811,279.0619,145.3543,214.7868,0,U,60079,999,12029,.73104958E-4,.51E-5,0 KINEIS-1C,2024-114C,2026-09-12T06:14:56.215968,14.80740571,.0000505,97.9829,278.8965,108.3486,251.7781,0,U,60081,999,12026,.71637055E-4,.499E-5,0 KINEIS-1D,2024-114D,2026-09-12T08:05:55.533984,14.76419649,.00001113,97.9875,274.5280,53.2853,306.8366,0,U,60082,999,11998,.63469093E-4,.39E-5,0 KINEIS-1E,2024-114E,2026-09-12T08:16:20.477280,14.80768106,.00012077,97.8937,277.3959,306.3008,53.8092,0,U,60083,999,12028,.66635653E-4,.462E-5,0 KINEIS-1A,2024-114F,2026-09-12T07:28:23.294208,14.80730364,.00034205,97.8909,277.4358,197.7825,162.3268,0,U,60084,999,12028,.6738996E-4,.467E-5,0 KINEIS-3C,2024-172A,2026-09-12T04:46:42.171744,14.72313063,.00010615,98.0412,344.1657,167.7345,192.3888,0,U,61220,999,10587,.19784857E-3,.1201E-4,0 KINEIS-3D,2024-172B,2026-09-12T04:37:09.484032,14.72302542,.00010692,98.0411,344.1687,158.3764,201.7489,0,U,61221,999,10615,.1967635E-3,.1194E-4,0 KINEIS-3E,2024-172C,2026-09-12T05:49:51.686112,14.72367280,.00011892,98.0406,344.1966,120.7558,239.3766,0,U,61222,999,10616,.19462872E-3,.1182E-4,0 KINEIS-3A,2024-172D,2026-09-12T05:26:26.191392,14.72320037,.00026385,98.0404,344.2761,143.8082,216.3304,0,U,61223,999,10558,.1943074E-3,.1179E-4,0 KINEIS-3B,2024-172E,2026-09-12T05:01:46.128288,14.72318238,.00029026,98.0398,344.2768,129.7536,230.3927,0,U,61224,999,10615,.19578846E-3,.1188E-4,0 KINEIS-5C,2024-219A,2026-09-12T06:06:08.438112,14.72312792,.00043302,97.9144,51.7418,22.7805,337.3594,0,U,62081,999,9656,.73434185E-4,.416E-5,0 KINEIS-5D,2024-219B,2026-09-12T06:31:48.258048,14.72578799,.00049198,97.9260,51.9284,10.3583,349.7726,0,U,62082,999,9657,.10212752E-3,.601E-5,0 KINEIS-5E,2024-219C,2026-09-12T07:11:10.040064,14.72285729,.00061497,97.9103,51.8470,0.2813,359.8398,0,U,62083,999,9658,.67396276E-4,.377E-5,0 KINEIS-5A,2024-219D,2026-09-12T06:37:07.550112,14.72288685,.00051539,97.9041,52.0659,42.5910,317.5697,0,U,62084,999,9658,-.28686205E-3,-.186E-4,0 KINEIS-5B,2024-219E,2026-09-12T06:55:42.636288,14.78483656,.00020411,98.0162,58.6763,30.7324,329.4006,0,U,62085,999,9687,.1045917E-3,.711E-5,0 KINEIS-2C,2025-028B,2026-09-12T02:34:36.318720,14.73559344,.00036281,98.1164,309.5718,13.8839,346.2468,0,U,62929,999,8541,.15454107E-3,.954E-5,0 KINEIS-2D,2025-028C,2026-09-12T02:36:09.902016,14.75903120,.00017509,97.9207,305.8574,293.5768,66.5258,0,U,62930,999,8553,.14779072E-3,.965E-5,0 KINEIS-2E,2025-028D,2026-09-12T03:15:59.712192,14.77205355,.00009993,97.8876,304.8938,109.0727,251.0591,0,U,62931,999,8561,.12410896E-3,.829E-5,0 KINEIS-2A,2025-028E,2026-09-12T03:39:18.162720,14.73562525,.00033607,98.1222,310.6659,239.3814,120.7063,0,U,62932,999,8541,.13408766E-3,.821E-5,0 KINEIS-2B,2025-028G,2026-09-12T03:06:53.488800,14.73565068,.00026184,97.9589,306.3886,211.7612,148.3439,0,U,62934,999,8546,.13773875E-3,.847E-5,0 KINEIS-4E,2025-056A,2026-09-12T07:22:43.818240,14.72301988,.0000926,97.9134,16.8337,183.9228,176.1973,0,U,63300,999,7994,.17215291E-3,.104E-4,0 KINEIS-4C,2025-056B,2026-09-12T07:41:07.720800,14.72326686,.00045363,97.9188,17.1330,58.8175,301.3477,0,U,63301,999,7995,.17606194E-3,.1065E-4,0 KINEIS-4D,2025-056C,2026-09-12T07:47:40.341408,14.72346691,.00036531,97.9109,17.0502,72.5168,287.6439,0,U,63302,999,7995,.17483142E-3,.1058E-4,0 KINEIS-4A,2025-056D,2026-09-12T06:58:37.123680,14.72279387,.00021458,97.9204,17.0398,47.3693,312.7695,0,U,63303,999,7994,.16761423E-3,.101E-4,0 KINEIS-4B,2025-056E,2026-09-12T08:11:34.240128,14.72349103,.00059503,97.9216,17.1550,31.8693,328.2874,0,U,63304,999,7994,.16778036E-3,.1013E-4,0